FW8450 Weather Reports


time (UTC)temp
C
wind
direction
speed
KPH
gust
KPH
rain 1hr
cm
rain 24hr
cm
rain mn
cm
humidity
%
barometer
mb
20260507023053 12 257 0.0 1.6 0.00 0.00 0.00 84 1019.6
20260507021553 12 266 0.0 6.4 0.00 0.00 0.00 83 1019.4
20260507020109 13 228 0.0 9.7 0.00 0.00 0.00 83 1019.5
20260507014601 13 247 1.6 6.4 0.00 0.00 0.00 82 1019.4
20260507013057 13 286 0.0 3.2 0.00 0.00 0.00 82 1019.3
20260507011552 13 241 0.0 3.2 0.00 0.00 0.00 81 1019.4
20260507010056 13 286 0.0 4.8 0.00 0.00 0.00 81 1019.5
20260507004605 13 0 1.6 4.8 0.00 0.00 0.00 81 1019.6
20260507003056 13 248 1.6 8.0 0.00 0.00 0.00 80 1019.5
20260507001552 13 238 1.6 6.4 0.00 0.00 0.00 79 1019.4
20260507000054 13 247 0.0 6.4 0.00 0.00 0.00 79 1019.5
20260506234555 13 259 1.6 11.3 0.00 0.00 0.00 78 1019.5
20260506233110 13 230 3.2 6.4 0.00 0.00 0.00 77 1019.5
20260506231602 14 267 3.2 6.4 0.00 0.00 0.00 77 1019.4
20260506230057 15 281 1.6 6.4 0.00 0.00 0.00 75 1019.5
20260506224554 15 0 1.6 9.7 0.00 0.00 0.00 75 1019.6
20260506223055 15 171 1.6 11.3 0.00 0.00 0.00 75 1019.5
20260506221553 15 107 1.6 9.7 0.00 0.00 0.00 76 1019.7
20260506220054 15 223 1.6 11.3 0.00 0.00 0.00 77 1019.8
20260506214555 15 269 0.0 14.5 0.00 0.00 0.00 76 1019.7
20260506213111 15 215 3.2 11.3 0.00 0.00 0.00 75 1019.7
20260506211553 16 296 3.2 16.1 0.00 0.00 0.00 75 1019.8
20260506210054 16 247 3.2 14.5 0.00 0.00 0.00 75 1019.7
20260506204553 15 275 3.2 9.7 0.00 0.00 0.00 77 1019.7
20260506203054 15 186 1.6 6.4 0.00 0.00 0.00 81 1019.5
20260506201552 14 161 1.6 6.4 0.00 0.00 0.00 82 1019.6
20260506200055 13 0 0.0 8.0 0.00 0.00 0.00 84 1019.7
20260506194602 13 0 0.0 6.4 0.00 0.00 0.00 83 1019.7
20260506193053 13 0 1.6 6.4 0.00 0.00 0.00 84 1019.5
20260506191555 13 176 1.6 8.0 0.00 0.00 0.00 84 1019.5
20260506190053 13 0 1.6 9.7 0.00 0.00 0.00 84 1019.4
20260506184609 13 163 0.0 6.4 0.00 0.00 0.00 85 1019.3
20260506183103 13 171 0.0 4.8 0.00 0.00 0.00 86 1019.2
20260506181621 13 238 0.0 9.7 0.00 0.00 0.00 87 1019.2
20260506180054 13 208 1.6 6.4 0.00 0.00 0.00 86 1019.2
20260506174554 13 0 0.0 4.8 0.00 0.00 0.00 86 1019.2
20260506173108 12 0 0.0 3.2 0.00 0.00 0.00 89 1018.8
20260506171555 12 0 0.0 3.2 0.00 0.00 0.00 89 1019.1
20260506170057 12 266 0.0 3.2 0.00 0.00 0.00 87 1019.3
20260506164554 12 0 0.0 3.2 0.00 0.00 0.00 87 1019.1
20260506163055 12 186 0.0 4.8 0.00 0.00 0.00 88 1019.2
20260506161554 12 198 0.0 3.2 0.00 0.00 0.00 89 1018.9
20260506160108 12 0 0.0 3.2 0.00 0.00 0.00 90 1018.9
20260506154603 12 0 0.0 1.6 0.00 0.00 0.00 91 1018.7
20260506153112 12 125 0.0 3.2 0.00 0.00 0.00 91 1018.6
20260506151556 12 0 0.0 1.6 0.00 0.00 0.00 92 1018.7
20260506150100 12 0 0.0 1.6 0.00 0.00 0.00 91 1019.1
20260506144557 11 0 0.0 1.6 0.00 0.00 0.00 91 1018.7
20260506143053 11 197 0.0 1.6 0.00 0.00 0.00 91 1018.6
20260506141553 11 0 0.0 1.6 0.00 0.00 0.00 91 1018.5
20260506140054 11 0 0.0 3.2 0.00 0.00 0.00 92 1018.5
20260506134600 11 0 0.0 0.0 0.00 0.00 0.00 92 1018.5
20260506133058 11 0 0.0 1.6 0.00 0.00 0.00 92 1018.4
20260506131555 11 0 0.0 0.0 0.00 0.00 0.00 93 1018.5
20260506130057 11 0 0.0 0.0 0.00 0.00 0.00 93 1018.2
20260506124554 11 0 0.0 0.0 0.00 0.00 0.00 93 1018.0
20260506123054 11 0 0.0 0.0 0.00 0.00 0.00 93 1017.9
20260506121555 11 0 0.0 1.6 0.00 0.00 0.00 93 1018.0
20260506120057 11 0 0.0 0.0 0.00 0.00 0.00 93 1018.0
20260506114558 11 0 0.0 0.0 0.00 0.00 0.00 93 1017.9
20260506113053 11 0 0.0 0.0 0.00 0.00 0.00 93 1017.8
20260506111551 11 0 0.0 1.6 0.00 0.00 0.00 93 1017.7
20260506110057 11 0 0.0 1.6 0.00 0.00 0.00 93 1017.4
20260506104558 10 0 0.0 0.0 0.00 0.00 0.00 93 1017.3
20260506103056 10 0 0.0 1.6 0.00 0.00 0.00 93 1017.1
20260506101552 10 0 0.0 1.6 0.00 0.00 0.00 93 1017.1
20260506100055 10 0 0.0 0.0 0.00 0.00 0.00 93 1016.9
20260506094552 10 0 0.0 0.0 0.00 0.00 0.00 93 1016.8
20260506093053 10 0 0.0 1.6 0.00 0.00 0.00 93 1016.8
20260506091600 10 0 0.0 1.6 0.00 0.00 0.00 93 1016.8
20260506090059 10 0 0.0 0.0 0.00 0.00 0.00 93 1016.8
20260506084600 10 0 0.0 0.0 0.00 0.00 0.00 93 1016.6
20260506083052 11 0 0.0 0.0 0.00 0.00 0.00 93 1016.4
20260506081557 11 0 0.0 0.0 0.00 0.00 0.00 92 1016.3
20260506080105 11 0 0.0 0.0 0.00 0.00 0.00 92 1016.2
20260506073056 11 0 0.0 0.0 0.00 0.00 0.00 90 1015.9
20260506071602 11 0 0.0 1.6 0.00 0.00 0.00 89 1015.9
20260506061553 12 0 0.0 1.6 0.00 0.00 0.00 88 1015.7
20260506050103 13 0 0.0 1.6 0.00 0.00 0.00 86 1015.0
20260506044554 13 0 0.0 1.6 0.00 0.00 0.00 86 1015.0
20260506043051 13 0 0.0 1.6 0.00 0.00 0.00 86 1014.9
20260506041553 13 126 0.0 1.6 0.00 0.00 0.00 84 1014.7
20260506040054 14 0 0.0 0.0 0.00 0.00 0.00 83 1014.6
20260506034612 15 0 0.0 1.6 0.00 0.00 0.00 82 1014.6
20260506033054 15 0 0.0 1.6 0.00 0.00 0.00 79 1014.5
20260506031552 16 0 0.0 0.0 0.00 0.00 0.00 77 1014.3
20260506030051 17 0 0.0 1.6 0.00 0.00 0.00 75 1014.2
20260506024613 17 234 0.0 3.2 0.00 0.00 0.00 74 1014.2